Satellite: SOHLA-1
Catalog number: 33496
Epoch time:      09092.59759831
Element set:     211
Inclination:      098.0297 deg
RA of node:       203.1164 deg
Eccentricity:    0.0006978
Arg of perigee:   154.1592 deg
Mean anomaly:     205.9963 deg
Mean motion:   14.69427164 rev/day
Decay rate:       -3.0e-08 rev/day^2
Epoch rev:            1017
Checksum:              309

/EX
SB KEPS @ AMSAT  $ORB09092.W
Orbital Elements  09092.WEATHER

HR AMSAT ORBITAL ELEMENTS FOR WEATHER SATELLITES
FROM WA5QGD FORT WORTH,TX April 2, 2009
Send Subscribe/unsubscribe to KEPS at 
http://www.amsat.org/mailman/listinfo/keps
BID: ORB09092.W
TO ALL RADIO AMATEURS BT

Satellite: NOAA-10
Catalog number: 16969
Epoch time:      09091.61024306
Element set:    0558
Inclination:      098.6989 deg
RA of node:       118.6513 deg
Eccentricity:    0.0013150
Arg of perigee:   062.0424 deg
Mean anomaly:     298.2100 deg
Mean motion:   14.27382950 rev/day
Decay rate:       -3.8e-07 rev/day^2
Epoch rev:           17258
Checksum:              302

Satellite: NOAA-11
Catalog number: 19531
Epoch time:      09091.83383846
Element set:    0569
Inclination:      098.7817 deg
RA of node:       182.9690 deg
Eccentricity:    0.0011277
Arg of perigee:   330.2770 deg
Mean anomaly:     029.7763 deg
Mean motion:   14.14891083 rev/day
Decay rate:      -1.68e-06 rev/day^2
Epoch rev:           05872
Checksum:              339

Satellite: NOAA-12
Catalog number: 21263
Epoch time:      09091.95478780
Element set:    0085
Inclination:      098.7736 deg
RA of node:       099.9771 deg
Eccentricity:    0.0012827
Arg of perigee:   011.6344 deg
Mean anomaly:     348.5125 deg
Mean motion:   14.25572256 rev/day
Decay rate:        1.7e-07 rev/day^2
Epoch rev:           92953
Checksum:              332

Satellite: MET-3/5
Catalog number: 21655
Epoch time:      09091.95222198
Element set:    0715
Inclination:      082.5491 deg
RA of node:       260.3520 deg
Eccentricity:    0.0014241
Arg of perigee:   016.0670 deg
Mean anomaly:     344.0901 deg
Mean motion:   13.17019171 rev/day
Decay rate:        5.1e-07 rev/day^2
Epoch rev:           84759
Checksum:              278

Satellite: MET-2/21
Catalog number: 22782
Epoch time:      09092.53866945
Element set:     420
Inclination:      082.5461 deg
RA of node:       242.0073 deg
Eccentricity:    0.0021871
Arg of perigee:   195.5279 deg
Mean anomaly:     164.5209 deg
Mean motion:   13.83634261 rev/day
Decay rate:        1.8e-07 rev/day^2
Epoch rev:           78714
Checksum:              310

Satellite: OKEAN-4
Catalog number: 23317
Epoch time:      09091.70496727
Element set:     869
Inclination:      082.5398 deg
RA of node:       045.8531 deg
Eccentricity:    0.0020395
Arg of perigee:   256.5859 deg
Mean anomaly:     103.3095 deg
Mean motion:   14.82684410 rev/day
Decay rate:        8.8e-07 rev/day^2
Epoch rev:           78103
Checksum:              329

Satellite: NOAA-14
Catalog number: 23455
Epoch time:      09091.73623553
Element set:    0567
Inclination:      098.9116 deg
RA of node:       169.6728 deg
Eccentricity:    0.0010040
Arg of perigee:   051.4729 deg
Mean anomaly:     308.7343 deg
Mean motion:   14.13759809 rev/day
Decay rate:      -1.74e-06 rev/day^2
Epoch rev:           73512
Checksum:              317

Satellite: NOAA-15
Catalog number: 25338
Epoch time:      09091.85639211
Element set:    0874
Inclination:      098.5818 deg
RA of node:       082.7532 deg
Eccentricity:    0.0009620
Arg of perigee:   281.9728 deg
Mean anomaly:     078.0365 deg
Mean motion:   14.24752193 rev/day
Decay rate:       1.42e-06 rev/day^2
Epoch rev:           56590
Checksum:              329

Satellite: RESURS
Catalog number: 25394
Epoch time:      09091.93253500
Element set:    0198
Inclination:      098.3508 deg
RA of node:       128.1353 deg
Eccentricity:    0.0002458
Arg of perigee:   071.7876 deg
Mean anomaly:     288.3571 deg
Mean motion:   14.24181038 rev/day
Decay rate:       -3.3e-07 rev/day^2
Epoch rev:           55754
Checksum:              307

Satellite: FENGYUN1
Catalog number: 25730
Epoch time:      09091.95882881
Element set:    0763
Inclination:      098.7520 deg
RA of node:       064.4157 deg
Eccentricity:    0.0023136
Arg of perigee:   074.6353 deg
Mean anomaly:     285.7372 deg
Mean motion:   14.07958928 rev/day
Decay rate:       5.45e-06 rev/day^2
Epoch rev:           50959
Checksum:              341

Satellite: OKEAN-0
Catalog number: 25860
Epoch time:      09091.84791224
Element set:    0640
Inclination:      097.7807 deg
RA of node:       076.0877 deg
Eccentricity:    0.0001849
Arg of perigee:   071.8098 deg
Mean anomaly:     288.3310 deg
Mean motion:   14.73565190 rev/day
Decay rate:        3.0e-07 rev/day^2
Epoch rev:           52190
Checksum:              312

Satellite: NOAA-16
Catalog number: 26536
Epoch time:      09091.86180193
Element set:    0348
Inclination:      099.1770 deg
RA of node:       093.6841 deg
Eccentricity:    0.0011139
Arg of perigee:   132.7945 deg
Mean anomaly:     227.4172 deg
Mean motion:   14.12512396 rev/day
Decay rate:      -1.83e-06 rev/day^2
Epoch rev:           43952
Checksum:              314

Satellite: NOAA-17
Catalog number: 27453
Epoch time:      09091.76661989
Element set:    0357
Inclination:      098.4908 deg
RA of node:       153.4418 deg
Eccentricity:    0.0011442
Arg of perigee:   351.7307 deg
Mean anomaly:     008.3690 deg
Mean motion:   14.24052716 rev/day
Decay rate:       1.90e-06 rev/day^2
Epoch rev:           35187
Checksum:              319

Satellite: NOAA-18
Catalog number: 28654
Epoch time:      09091.76053237
Element set:    0849
Inclination:      098.9018 deg
RA of node:       035.6152 deg
Eccentricity:    0.0013703
Arg of perigee:   216.5696 deg
Mean anomaly:     143.4551 deg
Mean motion:   14.11245477 rev/day
Decay rate:       2.37e-06 rev/day^2
Epoch rev:           19917
Checksum:              321

Satellite: NOAA-19
Catalog number: 33591
Epoch time:      09091.79509241
Element set:    0056
Inclination:      098.7403 deg
RA of node:       039.5692 deg
Eccentricity:    0.0015070
Arg of perigee:   099.1071 deg
Mean anomaly:     261.1816 deg
Mean motion:   14.10944944 rev/day
Decay rate:       -8.8e-07 rev/day^2
Epoch rev:           00766
Checksum:              315

/EX
SB KEPS @ AMSAT  $ORB09092.M
Orbital Elements  09092.MISC

HR AMSAT ORBITAL ELEMENTS FOR MANNED AND MISCELLANEOUS SATELLITES
FROM WA5QGD FORT WORTH,TX April 2, 2009
Send Subscribe/unsubscribe to KEPS at 
http://www.amsat.org/mailman/listinfo/keps
BID: ORB09092.M
TO ALL RADIO AMATEURS BT

Satellite: HUBBLE
Catalog number: 20580
Epoch time:      09091.76123720
Element set:    0360
Inclination:      028.4712 deg
RA of node:       240.9677 deg
Eccentricity:    0.0004013
Arg of perigee:   213.8753 deg
Mean anomaly:     146.1583 deg
Mean motion:   15.00469555 rev/day
Decay rate:       3.41e-06 rev/day^2
Epoch rev:           83836
Checksum:              280

Satellite: PO-34
Catalog number: 25520
Epoch time:      09091.95844739
Element set:    0220
Inclination:      028.4602 deg
RA of node:       045.3106 deg
Eccentricity:    0.0005706
Arg of perigee:   193.3697 deg
Mean anomaly:     166.6743 deg
Mean motion:   15.17316038 rev/day
Decay rate:       3.39e-06 rev/day^2
Epoch rev:           57706
Checksum:              308

Satellite: ISS
Catalog number: 25544
Epoch time:      09092.68379046
Element set:     597
Inclination:      051.6414 deg
RA of node:       333.8809 deg
Eccentricity:    0.0009471
Arg of perigee:   189.1482 deg
Mean anomaly:     170.9871 deg
Mean motion:   15.71872827 rev/day
Decay rate:      9.829e-05 rev/day^2
Epoch rev:           59407
Checksum:              355

Satellite: CO-58
Catalog number: 28895
Epoch time:      09091.70483501
Element set:     268
Inclination:      098.0700 deg
RA of node:       344.4262 deg
Eccentricity:    0.0017096
Arg of perigee:   224.8071 deg
Mean anomaly:     135.1745 deg
Mean motion:   14.59754033 rev/day
Decay rate:        1.1e-07 rev/day^2
Epoch rev:           18257
Checksum:              307

Satellite: FALCON
Catalog number: 30776
Epoch time:      09091.65245515
Element set:    0550
Inclination:      035.4335 deg
RA of node:       203.7469 deg
Eccentricity:    0.0002185
Arg of perigee:   332.4935 deg
Mean anomaly:     027.5667 deg
Mean motion:   15.03203713 rev/day
Decay rate:       4.00e-06 rev/day^2
Epoch rev:           11357
Checksum:              272

Satellite: MAST
Catalog number: 31126
Epoch time:      09091.69050556
Element set:     562
Inclination:      097.9960 deg
RA of node:       149.9697 deg
Eccentricity:    0.0095374
Arg of perigee:   156.7630 deg
Mean anomaly:     203.7929 deg
Mean motion:   14.53486640 rev/day
Decay rate:        6.1e-07 rev/day^2
Epoch rev:           10392
Checksum:              327

Satellite: CAPE1
Catalog number: 31130
Epoch time:      09091.86032212
Element set:     565
Inclination:      097.9976 deg
RA of node:       148.4852 deg
Eccentricity:    0.0103578
Arg of perigee:   161.1458 deg
Mean anomaly:     199.3601 deg
Mean motion:   14.52045024 rev/day
Decay rate:       1.27e-06 rev/day^2
Epoch rev:           10361
Checksum:              283

Satellite: COMPASS
Catalog number: 32787
Epoch time:      09092.66407009
Element set:     321
Inclination:      097.9506 deg
RA of node:       157.1039 deg
Eccentricity:    0.0014628
Arg of perigee:   278.9440 deg
Mean anomaly:     081.0116 deg
Mean motion:   14.81570638 rev/day
Decay rate:        9.0e-07 rev/day^2
Epoch rev:            5026
Checksum:              294

